Loyall, KY

10:16 AM EST on December 07, 2016 (GMT -0500)
Harlan

Weather History for KI35 - October, 2012

Change the Weather History Date:

Friday, October 5, 2012

  Actual Average (KLOZ) Record (KLOZ)
Temperature  
Mean Temperature 65 °F 61 °F  
Max Temperature 77 °F 73 °F 88 °F (1959)
Min Temperature 53 °F 49 °F 28 °F (1968)
Degree Days  
Heating Degree Days 0 5  
Month to date heating degree days 24  
Since 1 July heating degree days 71  
Cooling Degree Days 0 1  
Month to date cooling degree days 7  
Year to date cooling degree days 1174  
Growing Degree Days 15 (Base 50)    
Moisture  
Dew Point 53 °F    
Average Humidity 80    
Maximum Humidity 100    
Minimum Humidity 39    
Precipitation  
Precipitation 0.00 in 0.10 in 2.14 in (1995)
Month to date precipitation 0.48  
Sea Level Pressure  
Sea Level Pressure 30.17 in    
Wind  
Wind Speed 2 mph ()    
Max Wind Speed 9 mph    
Max Gust Speed -    
Visibility 5.3 miles    
Events      
T = Trace of Precipitation, MM = Missing Value Source: Averaged Metar Reports

Daily Weather History Graph

Daily Weather History Graph

Search for Another Location

Airport or City:

Trip Planner

Search our weather history database for the weather conditions in past years. The results will help you decide how hot, cold, wet, or windy it might be!

Date:

Astronomy

Oct. 05, 2012 Rise Set
Actual Time 7:32 AM EDT 7:10 PM EDT
Civil Twilight 7:06 AM EDT 7:36 PM EDT
Nautical Twilight 6:36 AM EDT 8:06 PM EDT
Astronomical Twilight 6:06 AM EDT 8:36 PM EDT
Moon 10:39 PM EDT (10/5) 12:32 PM EDT (10/5)
Length of Visible Light 12h 29m
Length of Day
11h 37m
Waning Gibbous, 74% of the Moon is Illuminated
Oct 5
Waning Gibbous
Oct 8
Last Quarter
Oct 15
New
Oct 21
First Quarter
Oct 29
Full

Hourly Weather History & Observations

Time (EDT) Temp. Dew Point Humidity Pressure Visibility Wind Dir Wind Speed Gust Speed Precip Events Conditions
12:15 AM 55.4 °F 53.6 °F 94% 30.27 in 1.5 mi Calm Calm - N/A   Overcast
12:35 AM 53.6 °F 53.6 °F 100% 30.27 in 1.0 mi East 3.5 mph - N/A   Overcast
12:55 AM 53.6 °F 53.6 °F 100% 30.27 in 2.0 mi East 4.6 mph - N/A   Overcast
1:15 AM 53.6 °F 53.6 °F 100% 30.27 in 0.8 mi Calm Calm - N/A   Overcast
1:35 AM 53.6 °F 53.6 °F 100% 30.27 in 0.2 mi East 4.6 mph - N/A   Overcast
1:55 AM 53.6 °F 53.6 °F 100% 30.26 in 0.2 mi East 3.5 mph - N/A   Overcast
2:15 AM 53.6 °F 53.6 °F 100% 30.26 in 0.2 mi East 4.6 mph - N/A   Overcast
2:35 AM 53.6 °F 53.6 °F 100% 30.26 in 0.2 mi East 3.5 mph - N/A   Overcast
2:55 AM 53.6 °F 53.6 °F 100% 30.26 in 0.2 mi East 3.5 mph - N/A   Overcast
3:15 AM 53.6 °F 53.6 °F 100% 30.25 in 0.2 mi Calm Calm - N/A   Overcast
3:35 AM 53.6 °F 53.6 °F 100% 30.25 in 0.2 mi East 3.5 mph - N/A   Overcast
3:55 AM 53.6 °F 53.6 °F 100% 30.24 in 0.2 mi Calm Calm - N/A   Overcast
4:15 AM 53.6 °F 51.8 °F 94% 30.24 in 0.2 mi East 3.5 mph - N/A   Overcast
4:35 AM 53.6 °F 51.8 °F 94% 30.24 in 0.2 mi Calm Calm - N/A   Overcast
4:55 AM 53.6 °F 51.8 °F 94% 30.24 in 0.2 mi ENE 3.5 mph - N/A   Overcast
5:15 AM 53.6 °F 51.8 °F 94% 30.24 in 0.2 mi East 3.5 mph - N/A   Overcast
5:35 AM 53.6 °F 51.8 °F 94% 30.24 in 0.2 mi Calm Calm - N/A   Overcast
5:55 AM 53.6 °F 51.8 °F 94% 30.24 in 0.2 mi East 3.5 mph - N/A   Overcast
6:15 AM 53.6 °F 51.8 °F 94% 30.24 in 0.2 mi East 3.5 mph - N/A   Overcast
6:35 AM 53.6 °F 51.8 °F 94% 30.24 in 0.2 mi Calm Calm - N/A   Overcast
6:55 AM 53.6 °F 51.8 °F 94% 30.25 in 0.2 mi Calm Calm - N/A   Overcast
7:15 AM 53.6 °F 51.8 °F 94% 30.24 in 0.2 mi NE 3.5 mph - N/A   Overcast
7:35 AM 53.6 °F 51.8 °F 94% 30.24 in 0.2 mi Calm Calm - N/A   Overcast
7:55 AM 53.6 °F 51.8 °F 94% 30.25 in 0.2 mi Calm Calm - N/A   Overcast
8:15 AM 53.6 °F 51.8 °F 94% 30.24 in 0.2 mi Calm Calm - N/A   Overcast
8:35 AM 53.6 °F 51.8 °F 94% 30.25 in 0.2 mi East 5.8 mph - N/A   Overcast
8:55 AM 53.6 °F 51.8 °F 94% 30.24 in 0.2 mi East 5.8 mph - N/A   Overcast
9:15 AM 53.6 °F 51.8 °F 94% 30.24 in 0.2 mi ESE 4.6 mph - N/A   Overcast
9:35 AM 53.6 °F 51.8 °F 94% 30.24 in 0.2 mi ESE 3.5 mph - N/A   Overcast
9:55 AM 53.6 °F 53.6 °F 100% 30.24 in 0.2 mi Calm Calm - N/A   Overcast
10:15 AM 53.6 °F 53.6 °F 100% 30.24 in 0.8 mi North - - N/A   Overcast
10:35 AM 55.4 °F 53.6 °F 94% 30.23 in 3.0 mi East 5.8 mph - N/A   Overcast
10:55 AM 55.4 °F 55.4 °F 100% 30.22 in 10.0 mi Calm Calm - N/A   Overcast
11:15 AM 59.0 °F 55.4 °F 88% 30.21 in 10.0 mi East 4.6 mph - N/A   Scattered Clouds
11:35 AM 62.6 °F 57.2 °F 82% 30.20 in 10.0 mi Calm Calm - N/A   Clear
11:55 AM 66.2 °F 57.2 °F 73% 30.19 in 10.0 mi Calm Calm - N/A   Clear
12:35 PM 71.6 °F 57.2 °F 60% 30.18 in 10.0 mi Calm Calm - N/A   Scattered Clouds
12:55 PM 71.6 °F 57.2 °F 60% 30.18 in 10.0 mi Calm Calm - N/A   Scattered Clouds
1:15 PM 73.4 °F 55.4 °F 53% 30.17 in 10.0 mi SW 4.6 mph - N/A   Clear
1:35 PM 73.4 °F 55.4 °F 53% 30.16 in 10.0 mi WSW 8.1 mph - N/A   Clear
1:55 PM 75.2 °F 55.4 °F 50% 30.15 in 10.0 mi West 4.6 mph - N/A   Clear
2:35 PM 75.2 °F 55.4 °F 50% 30.13 in 10.0 mi WNW 8.1 mph - N/A   Clear
2:55 PM 77.0 °F 53.6 °F 44% 30.12 in 10.0 mi Calm Calm - N/A   Clear
3:15 PM 75.2 °F 51.8 °F 44% 30.10 in 10.0 mi SW 5.8 mph - N/A   Scattered Clouds
3:35 PM 77.0 °F 50.0 °F 39% 30.10 in 10.0 mi SSW 4.6 mph - N/A   Mostly Cloudy
3:55 PM 77.0 °F 50.0 °F 39% 30.08 in 10.0 mi Calm Calm - N/A   Scattered Clouds
4:15 PM 77.0 °F 50.0 °F 39% 30.07 in 10.0 mi Calm Calm - N/A   Clear
4:35 PM 77.0 °F 51.8 °F 41% 30.06 in 10.0 mi West 5.8 mph - N/A   Clear
4:55 PM 77.0 °F 50.0 °F 39% 30.07 in 10.0 mi West 5.8 mph - N/A   Scattered Clouds
5:15 PM 75.2 °F 50.0 °F 41% 30.07 in 10.0 mi West 4.6 mph - N/A   Scattered Clouds
5:35 PM 75.2 °F 51.8 °F 44% 30.06 in 10.0 mi North - - N/A   Clear
5:55 PM 73.4 °F 51.8 °F 47% 30.06 in 10.0 mi North - - N/A   Clear
6:15 PM 73.4 °F 51.8 °F 47% 30.06 in 10.0 mi North - - N/A   Clear
6:35 PM 71.6 °F 51.8 °F 50% 30.05 in 10.0 mi North - - N/A   Clear
6:55 PM 68.0 °F 53.6 °F 60% 30.05 in 10.0 mi North 3.5 mph - N/A   Clear
7:15 PM 64.4 °F 53.6 °F 68% 30.04 in 10.0 mi Calm Calm - N/A   Clear
7:35 PM 64.4 °F 53.6 °F 68% 30.05 in 10.0 mi Calm Calm - N/A   Clear
7:55 PM 62.6 °F 55.4 °F 77% 30.05 in 10.0 mi Calm Calm - N/A   Clear
8:15 PM 62.6 °F 55.4 °F 77% 30.05 in 10.0 mi Calm Calm - N/A   Clear
8:35 PM 60.8 °F 55.4 °F 82% 30.06 in 10.0 mi Calm Calm - N/A   Clear
8:55 PM 59.0 °F 55.4 °F 88% 30.06 in 10.0 mi Calm Calm - N/A   Clear
9:15 PM 59.0 °F 55.4 °F 88% 30.06 in 10.0 mi Calm Calm - N/A   Clear
9:35 PM 57.2 °F 55.4 °F 94% 30.06 in 10.0 mi Calm Calm - N/A   Clear
9:55 PM 57.2 °F 55.4 °F 94% 30.05 in 10.0 mi Calm Calm - N/A   Clear
10:15 PM 55.4 °F 53.6 °F 94% 30.05 in 7.0 mi Calm Calm - N/A   Clear
10:35 PM 55.4 °F 55.4 °F 100% 30.05 in 7.0 mi East 3.5 mph - N/A   Clear
10:55 PM 55.4 °F 55.4 °F 100% 30.06 in 7.0 mi Calm Calm - N/A   Clear
11:35 PM 55.4 °F 53.6 °F 94% 30.05 in 5.0 mi East 4.6 mph - N/A   Clear
11:55 PM 55.4 °F 53.6 °F 94% 30.04 in 5.0 mi East 9.2 mph - N/A   Scattered Clouds